TimeEST,TemperatureF,Dew PointF,Humidity,Sea Level PressureIn,VisibilityMPH,Wind Direction,Wind SpeedMPH,Gust SpeedMPH,PrecipitationIn,Events,Conditions,WindDirDegrees,DateUTC
12:15 AM,43.7,42.4,95,30.39,7.0,Calm,Calm,-,N/A,,Clear,0,2013-01-09 05:15:00
12:35 AM,43.3,42.4,97,30.38,4.0,Calm,Calm,-,N/A,,Clear,0,2013-01-09 05:35:00
12:55 AM,44.2,43.7,98,30.37,7.0,East,3.5,-,N/A,,Clear,80,2013-01-09 05:55:00
1:15 AM,42.8,41.9,97,30.37,7.0,Calm,Calm,-,N/A,,Clear,0,2013-01-09 06:15:00
1:35 AM,42.6,41.7,97,30.36,7.0,Calm,Calm,-,N/A,,Clear,0,2013-01-09 06:35:00
2:15 AM,42.1,40.8,95,30.36,10.0,Calm,Calm,-,N/A,,Clear,0,2013-01-09 07:15:00
2:35 AM,42.4,41.0,95,30.37,7.0,Calm,Calm,-,N/A,,Clear,0,2013-01-09 07:35:00
2:55 AM,42.3,41.0,95,30.37,7.0,Calm,Calm,-,N/A,,Clear,0,2013-01-09 07:55:00
3:15 AM,41.9,40.8,96,30.37,4.0,Calm,Calm,-,N/A,,Clear,0,2013-01-09 08:15:00
3:35 AM,41.4,40.6,97,30.37,5.0,Calm,Calm,-,N/A,,Clear,0,2013-01-09 08:35:00
3:55 AM,41.2,40.8,99,30.38,4.0,Calm,Calm,-,N/A,,Clear,0,2013-01-09 08:55:00
4:15 AM,40.6,40.3,99,30.37,5.0,Calm,Calm,-,N/A,,Scattered Clouds,0,2013-01-09 09:15:00
4:35 AM,42.3,41.9,99,30.37,5.0,Calm,Calm,-,N/A,,Mostly Cloudy,0,2013-01-09 09:35:00
4:55 AM,43.0,42.8,99,30.37,5.0,Calm,Calm,-,N/A,,Overcast,0,2013-01-09 09:55:00
5:15 AM,42.8,42.4,99,30.37,5.0,Calm,Calm,-,N/A,,Overcast,0,2013-01-09 10:15:00
5:35 AM,43.3,43.0,99,30.36,7.0,Calm,Calm,-,N/A,,Overcast,0,2013-01-09 10:35:00
5:55 AM,44.1,43.7,99,30.37,7.0,Calm,Calm,-,N/A,,Mostly Cloudy,0,2013-01-09 10:55:00
6:15 AM,43.3,42.4,97,30.38,7.0,NNW,3.5,-,N/A,,Clear,340,2013-01-09 11:15:00
6:35 AM,42.4,41.9,98,30.39,5.0,Calm,Calm,-,N/A,,Clear,0,2013-01-09 11:35:00
6:55 AM,42.4,41.9,98,30.40,5.0,Calm,Calm,-,N/A,,Clear,0,2013-01-09 11:55:00
7:15 AM,42.4,41.9,98,30.40,5.0,Calm,Calm,-,N/A,,Scattered Clouds,0,2013-01-09 12:15:00
7:35 AM,42.8,42.1,97,30.40,5.0,Calm,Calm,-,N/A,,Overcast,0,2013-01-09 12:35:00
7:55 AM,43.0,42.4,98,30.41,4.0,Calm,Calm,-,N/A,,Overcast,0,2013-01-09 12:55:00
8:15 AM,43.7,43.0,97,30.42,5.0,Calm,Calm,-,N/A,,Scattered Clouds,0,2013-01-09 13:15:00
8:35 AM,43.7,42.8,97,30.42,5.0,Calm,Calm,-,N/A,,Scattered Clouds,0,2013-01-09 13:35:00
8:55 AM,44.6,43.3,95,30.43,5.0,Calm,Calm,-,N/A,,Mostly Cloudy,0,2013-01-09 13:55:00
9:15 AM,45.9,44.1,93,30.43,7.0,Calm,Calm,-,N/A,,Mostly Cloudy,0,2013-01-09 14:15:00
9:35 AM,47.3,45.1,92,30.42,7.0,Calm,Calm,-,N/A,,Mostly Cloudy,0,2013-01-09 14:35:00
9:55 AM,50.2,46.6,87,30.42,10.0,Calm,Calm,-,N/A,,Overcast,0,2013-01-09 14:55:00
10:15 AM,53.1,47.5,81,30.42,10.0,Calm,Calm,-,N/A,,Mostly Cloudy,0,2013-01-09 15:15:00
10:35 AM,54.1,47.7,79,30.41,10.0,Calm,Calm,-,N/A,,Scattered Clouds,0,2013-01-09 15:35:00
10:55 AM,57.0,48.7,74,30.41,10.0,Calm,Calm,-,N/A,,Clear,0,2013-01-09 15:55:00
11:15 AM,60.3,50.2,69,30.39,10.0,ENE,3.5,-,N/A,,Clear,70,2013-01-09 16:15:00
11:35 AM,62.8,50.9,65,30.40,10.0,Calm,Calm,-,N/A,,Clear,0,2013-01-09 16:35:00
11:55 AM,64.8,51.8,63,30.39,10.0,Calm,Calm,-,N/A,,Clear,0,2013-01-09 16:55:00
12:15 PM,66.7,52.7,61,30.39,10.0,Calm,Calm,-,N/A,,Clear,0,2013-01-09 17:15:00
12:35 PM,66.2,52.3,61,30.38,10.0,Calm,Calm,-,N/A,,Clear,0,2013-01-09 17:35:00
12:55 PM,68.0,53.6,60,30.37,10.0,Calm,Calm,-,N/A,,Clear,0,2013-01-09 17:55:00
1:15 PM,68.4,53.8,60,30.37,10.0,NNW,3.5,-,N/A,,Clear,340,2013-01-09 18:15:00
1:35 PM,69.8,54.1,57,30.37,10.0,Calm,Calm,-,N/A,,Clear,0,2013-01-09 18:35:00
1:55 PM,70.2,54.0,56,30.36,10.0,Calm,Calm,-,N/A,,Clear,0,2013-01-09 18:55:00
2:15 PM,70.0,52.2,53,30.36,10.0,Calm,Calm,-,N/A,,Clear,0,2013-01-09 19:15:00
2:35 PM,70.3,53.2,55,30.37,10.0,NNW,5.8,-,N/A,,Clear,330,2013-01-09 19:35:00
2:55 PM,69.8,54.5,58,30.37,10.0,Calm,Calm,-,N/A,,Clear,0,2013-01-09 19:55:00
3:15 PM,69.6,54.5,59,30.37,10.0,North,3.5,-,N/A,,Clear,350,2013-01-09 20:15:00
3:35 PM,68.9,54.0,59,30.38,10.0,Calm,Calm,-,N/A,,Clear,0,2013-01-09 20:35:00
3:55 PM,68.9,54.5,60,30.37,10.0,Calm,Calm,-,N/A,,Clear,0,2013-01-09 20:55:00
4:15 PM,68.0,54.5,62,30.37,10.0,Calm,Calm,-,N/A,,Clear,0,2013-01-09 21:15:00
4:35 PM,66.2,55.6,69,30.38,10.0,Calm,Calm,-,N/A,,Clear,0,2013-01-09 21:35:00
4:55 PM,64.9,55.6,72,30.38,10.0,Calm,Calm,-,N/A,,Clear,0,2013-01-09 21:55:00
5:15 PM,63.7,55.6,75,30.38,10.0,Calm,Calm,-,N/A,,Clear,0,2013-01-09 22:15:00
5:35 PM,62.8,55.8,78,30.37,10.0,Calm,Calm,-,N/A,,Scattered Clouds,0,2013-01-09 22:35:00
5:55 PM,61.9,55.6,80,30.37,10.0,Calm,Calm,-,N/A,,Mostly Cloudy,0,2013-01-09 22:55:00
6:15 PM,61.0,55.9,83,30.38,10.0,Calm,Calm,-,N/A,,Scattered Clouds,0,2013-01-09 23:15:00
6:35 PM,61.2,55.6,82,30.38,10.0,WNW,3.5,-,N/A,,Scattered Clouds,300,2013-01-09 23:35:00
6:55 PM,62.2,55.8,79,30.38,10.0,Calm,Calm,-,N/A,,Scattered Clouds,0,2013-01-09 23:55:00
7:15 PM,61.0,55.4,82,30.38,10.0,Calm,Calm,-,N/A,,Scattered Clouds,0,2013-01-10 00:15:00
7:35 PM,59.2,54.7,85,30.38,10.0,Calm,Calm,-,N/A,,Clear,0,2013-01-10 00:35:00
7:55 PM,58.3,54.7,88,30.39,10.0,Calm,Calm,-,N/A,,Clear,0,2013-01-10 00:55:00
8:15 PM,57.2,54.9,92,30.39,10.0,Calm,Calm,-,N/A,,Clear,0,2013-01-10 01:15:00
8:35 PM,56.7,54.9,94,30.39,10.0,Calm,Calm,-,N/A,,Clear,0,2013-01-10 01:35:00
8:55 PM,58.1,55.8,92,30.38,10.0,SE,3.5,-,N/A,,Clear,140,2013-01-10 01:55:00
9:15 PM,58.1,55.8,92,30.38,10.0,Calm,Calm,-,N/A,,Clear,0,2013-01-10 02:15:00
9:35 PM,58.3,55.6,91,30.37,10.0,South,3.5,-,N/A,,Clear,170,2013-01-10 02:35:00
9:55 PM,57.9,55.4,91,30.39,10.0,Calm,Calm,-,N/A,,Clear,0,2013-01-10 02:55:00
10:15 PM,56.1,54.3,94,30.40,10.0,Calm,Calm,-,N/A,,Clear,0,2013-01-10 03:15:00
10:35 PM,56.1,54.7,95,30.40,10.0,Calm,Calm,-,N/A,,Clear,0,2013-01-10 03:35:00
10:55 PM,55.9,54.7,96,30.40,10.0,Calm,Calm,-,N/A,,Clear,0,2013-01-10 03:55:00
11:15 PM,55.9,54.9,96,30.40,10.0,Calm,Calm,-,N/A,,Clear,0,2013-01-10 04:15:00
11:35 PM,55.8,55.0,97,30.42,10.0,Calm,Calm,-,N/A,,Clear,0,2013-01-10 04:35:00
11:55 PM,55.6,54.7,97,30.42,10.0,Calm,Calm,-,N/A,,Clear,0,2013-01-10 04:55:00